TimeMDT,TemperatureF,Dew PointF,Humidity,Sea Level PressureIn,VisibilityMPH,Wind Direction,Wind SpeedMPH,Gust SpeedMPH,PrecipitationIn,Events,Conditions,WindDirDegrees,DateUTC
12:12 AM,32.0,10.4,41,30.53,-9999.0,WNW,9.2,-,N/A,,Clear,300,2013-04-28 06:12:00
12:32 AM,32.0,10.4,41,30.52,-9999.0,WNW,10.4,-,N/A,,Clear,290,2013-04-28 06:32:00
12:52 AM,32.0,10.4,41,30.51,-9999.0,West,15.0,-,N/A,,Clear,280,2013-04-28 06:52:00
1:12 AM,32.0,10.4,41,30.51,-9999.0,West,16.1,-,N/A,,Clear,270,2013-04-28 07:12:00
1:32 AM,32.0,10.4,41,30.50,-9999.0,West,17.3,-,N/A,,Clear,270,2013-04-28 07:32:00
1:52 AM,32.0,10.4,41,30.50,-9999.0,WSW,12.7,-,N/A,,Clear,240,2013-04-28 07:52:00
2:12 AM,32.0,10.4,41,30.49,-9999.0,WSW,13.8,-,N/A,,Clear,240,2013-04-28 08:12:00
2:32 AM,32.0,10.4,41,30.48,-9999.0,WSW,15.0,-,N/A,,Clear,240,2013-04-28 08:32:00
2:52 AM,30.2,10.4,44,30.48,-9999.0,SW,15.0,-,N/A,,Clear,230,2013-04-28 08:52:00
3:12 AM,30.2,10.4,44,30.47,-9999.0,WSW,19.6,-,N/A,,Clear,250,2013-04-28 09:12:00
3:32 AM,30.2,10.4,44,30.46,-9999.0,WSW,21.9,-,N/A,,Clear,250,2013-04-28 09:32:00
3:52 AM,30.2,10.4,44,30.46,-9999.0,West,24.2,-,N/A,,Clear,270,2013-04-28 09:52:00
4:12 AM,30.2,10.4,44,30.46,-9999.0,West,24.2,-,N/A,,Clear,260,2013-04-28 10:12:00
4:32 AM,30.2,10.4,44,30.45,-9999.0,WSW,23.0,-,N/A,,Clear,250,2013-04-28 10:32:00
4:52 AM,28.4,10.4,47,30.45,-9999.0,WSW,21.9,27.6,N/A,,Clear,250,2013-04-28 10:52:00
5:12 AM,28.4,10.4,47,30.45,-9999.0,WSW,20.7,-,N/A,,Clear,250,2013-04-28 11:12:00
5:32 AM,28.4,10.4,47,30.45,-9999.0,West,19.6,-,N/A,,Clear,270,2013-04-28 11:32:00
5:52 AM,30.2,10.4,44,30.45,-9999.0,West,23.0,-,N/A,,Clear,280,2013-04-28 11:52:00
6:12 AM,30.2,10.4,44,30.45,-9999.0,West,21.9,-,N/A,,Clear,280,2013-04-28 12:12:00
6:32 AM,30.2,10.4,44,30.45,-9999.0,West,20.7,-,N/A,,Clear,280,2013-04-28 12:32:00
7:12 AM,32.0,8.6,38,30.46,-9999.0,WNW,16.1,-,N/A,,Clear,300,2013-04-28 13:12:00
7:32 AM,32.0,8.6,38,30.47,-9999.0,WNW,15.0,-,N/A,,Clear,300,2013-04-28 13:32:00
7:52 AM,32.0,8.6,38,30.47,-9999.0,WNW,13.8,-,N/A,,Clear,300,2013-04-28 13:52:00
8:12 AM,32.0,10.4,41,30.46,-9999.0,WNW,13.8,-,N/A,,Clear,300,2013-04-28 14:12:00
8:32 AM,33.8,10.4,38,30.48,-9999.0,WNW,15.0,-,N/A,,Clear,290,2013-04-28 14:32:00
8:52 AM,33.8,10.4,38,30.46,-9999.0,West,21.9,26.5,N/A,,Clear,280,2013-04-28 14:52:00
9:12 AM,33.8,10.4,38,30.46,-9999.0,West,17.3,21.9,N/A,,Clear,280,2013-04-28 15:12:00
9:32 AM,35.6,10.4,35,30.47,-9999.0,West,11.5,-,N/A,,Clear,270,2013-04-28 15:32:00
9:52 AM,35.6,10.4,35,30.48,-9999.0,West,6.9,-,N/A,,Clear,280,2013-04-28 15:52:00
10:12 AM,37.4,12.2,36,30.47,-9999.0,WSW,15.0,19.6,N/A,,Clear,250,2013-04-28 16:12:00
10:32 AM,37.4,12.2,36,30.47,-9999.0,WSW,12.7,25.3,N/A,,Clear,250,2013-04-28 16:32:00
10:52 AM,39.2,14.0,36,30.48,-9999.0,West,13.8,21.9,N/A,,Clear,260,2013-04-28 16:52:00
11:12 AM,39.2,14.0,36,30.48,-9999.0,WSW,15.0,21.9,N/A,,Clear,240,2013-04-28 17:12:00
11:32 AM,39.2,12.2,33,30.48,-9999.0,West,11.5,19.6,N/A,,Clear,270,2013-04-28 17:32:00
11:52 AM,41.0,14.0,33,30.48,-9999.0,West,19.6,24.2,N/A,,Clear,270,2013-04-28 17:52:00
12:12 PM,41.0,14.0,33,30.48,-9999.0,West,13.8,25.3,N/A,,Clear,270,2013-04-28 18:12:00
12:32 PM,42.8,15.8,34,30.46,-9999.0,West,16.1,24.2,N/A,,Clear,260,2013-04-28 18:32:00
12:52 PM,42.8,14.0,31,30.46,-9999.0,WSW,16.1,21.9,N/A,,Clear,250,2013-04-28 18:52:00
1:12 PM,42.8,14.0,31,30.46,-9999.0,West,18.4,-,N/A,,Clear,260,2013-04-28 19:12:00
1:32 PM,44.6,14.0,29,30.46,-9999.0,West,8.1,18.4,N/A,,Clear,270,2013-04-28 19:32:00
1:52 PM,46.4,14.0,27,30.46,-9999.0,WNW,17.3,20.7,N/A,,Clear,300,2013-04-28 19:52:00
2:12 PM,46.4,14.0,27,30.45,-9999.0,WSW,20.7,28.8,N/A,,Clear,240,2013-04-28 20:12:00
2:32 PM,46.4,15.8,29,30.45,-9999.0,WNW,15.0,21.9,N/A,,Clear,290,2013-04-28 20:32:00
2:52 PM,44.6,14.0,29,30.44,-9999.0,West,15.0,26.5,N/A,,Clear,270,2013-04-28 20:52:00
3:12 PM,46.4,14.0,27,30.43,-9999.0,West,17.3,27.6,N/A,,Clear,270,2013-04-28 21:12:00
3:32 PM,46.4,15.8,29,30.42,-9999.0,West,20.7,26.5,N/A,,Clear,260,2013-04-28 21:32:00
3:52 PM,46.4,14.0,27,30.42,-9999.0,West,25.3,31.1,N/A,,Clear,280,2013-04-28 21:52:00
4:12 PM,46.4,14.0,27,30.41,-9999.0,WSW,21.9,35.7,N/A,,Clear,240,2013-04-28 22:12:00
4:32 PM,48.2,14.0,25,30.41,-9999.0,West,15.0,32.2,N/A,,Clear,260,2013-04-28 22:32:00
4:52 PM,46.4,14.0,27,30.40,-9999.0,West,27.6,38.0,N/A,,Clear,270,2013-04-28 22:52:00
5:12 PM,46.4,14.0,27,30.40,-9999.0,West,34.5,41.4,N/A,,Clear,270,2013-04-28 23:12:00
5:32 PM,46.4,14.0,27,30.40,-9999.0,West,26.5,31.1,N/A,,Clear,270,2013-04-28 23:32:00
5:52 PM,46.4,14.0,27,30.40,-9999.0,West,28.8,35.7,N/A,,Clear,260,2013-04-28 23:52:00
6:12 PM,46.4,14.0,27,30.40,-9999.0,West,28.8,35.7,N/A,,Clear,280,2013-04-29 00:12:00
6:32 PM,44.6,14.0,29,30.39,-9999.0,West,26.5,32.2,N/A,,Clear,260,2013-04-29 00:32:00
6:52 PM,44.6,12.2,27,30.39,-9999.0,WSW,26.5,36.8,N/A,,Clear,250,2013-04-29 00:52:00
7:12 PM,42.8,12.2,29,30.40,-9999.0,West,24.2,33.4,N/A,,Clear,260,2013-04-29 01:12:00
7:32 PM,42.8,14.0,31,30.40,-9999.0,West,27.6,35.7,N/A,,Clear,270,2013-04-29 01:32:00
7:52 PM,41.0,14.0,33,30.41,-9999.0,West,23.0,29.9,N/A,,Clear,270,2013-04-29 01:52:00
8:12 PM,39.2,14.0,36,30.42,-9999.0,West,21.9,26.5,N/A,,Clear,270,2013-04-29 02:12:00
8:32 PM,37.4,14.0,38,30.42,-9999.0,West,21.9,28.8,N/A,,Clear,270,2013-04-29 02:32:00
8:52 PM,37.4,14.0,38,30.41,-9999.0,West,27.6,31.1,N/A,,Clear,280,2013-04-29 02:52:00
9:12 PM,37.4,14.0,38,30.43,-9999.0,WNW,20.7,-,N/A,,Clear,290,2013-04-29 03:12:00
9:32 PM,37.4,14.0,38,30.43,-9999.0,West,20.7,-,N/A,,Clear,280,2013-04-29 03:32:00
9:52 PM,37.4,14.0,38,30.43,-9999.0,West,13.8,-,N/A,,Clear,270,2013-04-29 03:52:00
10:12 PM,37.4,12.2,36,30.43,-9999.0,West,11.5,-,N/A,,Clear,270,2013-04-29 04:12:00
10:32 PM,37.4,12.2,36,30.42,-9999.0,West,13.8,-,N/A,,Clear,260,2013-04-29 04:32:00
10:52 PM,37.4,12.2,36,30.41,-9999.0,West,15.0,-,N/A,,Clear,270,2013-04-29 04:52:00
11:12 PM,35.6,12.2,38,30.41,-9999.0,West,13.8,-,N/A,,Clear,270,2013-04-29 05:12:00
11:32 PM,35.6,12.2,38,30.40,-9999.0,West,13.8,-,N/A,,Clear,270,2013-04-29 05:32:00
11:52 PM,35.6,12.2,38,30.40,-9999.0,West,17.3,-,N/A,,Clear,260,2013-04-29 05:52:00